RCAMPBELL Weather Reports


time (UTC)temp
F
wind
direction
speed
knots
gust
knots
rain 1hr
in
rain 24hr
in
rain mn
in
humidity
%
barometer
mb
20260506103041 52 165 17.4 25.2 0.00 0.00 0.00 90 1015.7
20260506101541 52 162 17.4 25.2 0.00 0.00 0.00 90 1015.6
20260506100042 52 155 15.6 25.2 0.00 0.00 0.00 89 1015.5
20260506094538 53 167 14.8 22.6 0.00 0.00 0.00 90 1015.5
20260506093037 53 160 15.6 24.3 0.00 0.00 0.00 89 1015.3
20260506091538 53 173 15.6 23.5 0.00 0.00 0.00 89 1015.3
20260506090044 53 141 17.4 26.9 0.00 0.00 0.00 89 1015.2
20260506084538 53 155 18.2 26.9 0.00 0.00 0.00 89 1015.1
20260506083042 53 149 16.5 25.2 0.00 0.00 0.00 89 1015.2
20260506081541 53 165 16.5 26.9 0.00 0.00 0.00 89 1015.1
20260506073037 54 158 15.6 24.3 0.00 0.00 0.00 88 1014.7
20260506071537 54 163 16.5 24.3 0.00 0.00 0.00 89 1014.6
20260506061537 55 146 15.6 24.3 0.00 0.00 0.00 86 1014.5
20260506044539 57 169 10.4 18.2 0.00 0.00 0.00 83 1013.9
20260506043047 57 161 11.3 20.9 0.00 0.00 0.00 83 1013.8
20260506041539 57 171 11.3 20.0 0.00 0.00 0.00 82 1013.6
20260506040046 57 162 12.2 19.1 0.00 0.00 0.00 82 1013.5
20260506034538 57 148 12.2 19.1 0.00 0.00 0.00 82 1013.3
20260506033039 58 147 13.9 21.7 0.00 0.00 0.00 83 1013.2
20260506031539 58 138 13.9 23.5 0.00 0.00 0.00 83 1013.1
20260506030037 58 178 11.3 16.5 0.00 0.00 0.00 82 1013.0
20260506024543 58 142 13.9 22.6 0.00 0.00 0.00 82 1013.0
20260506023035 58 163 14.8 21.7 0.00 0.00 0.00 83 1013.2
20260506021551 58 156 13.0 20.0 0.00 0.00 0.00 82 1013.1
20260506020038 59 160 12.2 17.4 0.00 0.00 0.00 82 1013.1
20260506014550 59 167 10.4 17.4 0.00 0.00 0.00 82 1013.1
20260506013038 59 182 9.6 18.2 0.00 0.00 0.00 81 1013.1
20260506011544 60 167 10.4 15.6 0.00 0.00 0.00 81 1013.1
20260506010047 61 169 10.4 17.4 0.00 0.00 0.00 78 1013.1
20260506004537 61 180 11.3 18.2 0.00 0.00 0.00 79 1013.1
20260506003038 61 180 10.4 17.4 0.00 0.00 0.00 80 1013.1
20260506001537 60 202 12.2 18.2 0.00 0.00 0.00 79 1013.3
20260506000039 61 199 10.4 17.4 0.00 0.00 0.00 80 1013.4
20260505234602 60 171 10.4 17.4 0.00 0.00 0.00 81 1013.5
20260505233038 61 163 10.4 18.2 0.00 0.00 0.00 81 1013.7
20260505231539 60 180 10.4 18.2 0.00 0.00 0.00 81 1013.7
20260505230042 60 196 12.2 19.1 0.00 0.00 0.00 81 1013.7
20260505224538 60 198 11.3 18.2 0.00 0.00 0.00 82 1013.8
20260505223037 60 182 11.3 17.4 0.00 0.00 0.00 80 1014.0
20260505221537 60 184 10.4 18.2 0.00 0.00 0.00 81 1014.2
20260505220037 61 191 9.6 16.5 0.00 0.00 0.00 81 1014.2
20260505214550 61 198 9.6 16.5 0.00 0.00 0.00 81 1014.2
20260505213037 61 178 9.6 14.8 0.00 0.00 0.00 80 1014.3
20260505211545 60 178 9.6 17.4 0.00 0.00 0.00 79 1014.4
20260505210038 61 167 7.8 16.5 0.00 0.00 0.00 80 1014.5
20260505204538 60 196 8.7 14.8 0.00 0.00 0.00 81 1014.6
20260505203049 60 209 7.8 12.2 0.00 0.00 0.00 81 1014.6
20260505201538 60 206 7.8 14.8 0.00 0.00 0.00 82 1014.5
20260505200038 60 204 7.0 14.8 0.00 0.00 0.00 81 1014.6
20260505194542 60 205 8.7 14.8 0.00 0.00 0.00 84 1014.6
20260505193033 59 213 8.7 14.8 0.00 0.00 0.00 83 1014.7
20260505191543 58 213 8.7 14.8 0.00 0.00 0.00 83 1014.8
20260505190042 58 159 7.8 13.0 0.00 0.00 0.00 85 1014.7
20260505184547 57 191 7.8 13.9 0.00 0.00 0.00 85 1014.8
20260505183042 57 187 7.0 13.0 0.00 0.00 0.00 86 1014.8
20260505181534 56 179 7.0 13.0 0.00 0.00 0.00 87 1014.7
20260505180033 56 186 7.0 13.0 0.00 0.00 0.00 87 1014.6
20260505174540 56 214 7.8 12.2 0.00 0.00 0.00 88 1014.5
20260505173037 56 181 7.0 14.8 0.00 0.00 0.00 89 1014.5
20260505171537 55 192 7.0 13.0 0.00 0.00 0.00 90 1014.5
20260505170039 54 190 7.8 14.8 0.00 0.00 0.00 91 1014.4
20260505164539 54 167 8.7 13.9 0.00 0.00 0.00 91 1014.5
20260505163104 54 186 7.8 13.0 0.00 0.00 0.00 91 1014.4
20260505161540 54 177 7.0 13.9 0.00 0.00 0.00 92 1014.3
20260505153044 53 158 7.0 14.8 0.00 0.00 0.00 92 1014.2
20260505151539 53 196 9.6 16.5 0.00 0.00 0.00 91 1014.1
20260505124536 53 166 17.4 24.3 0.00 0.00 0.00 90 1012.3
20260505123036 53 167 14.8 25.2 0.00 0.00 0.00 89 1012.2
20260505121540 53 177 16.5 24.3 0.00 0.00 0.00 89 1012.0
20260505120037 54 161 16.5 22.6 0.00 0.00 0.00 89 1011.9
20260505114538 54 156 15.6 26.1 0.00 0.00 0.00 88 1011.6
20260505113042 54 168 15.6 22.6 0.00 0.00 0.00 88 1011.6
20260505111544 54 184 14.8 23.5 0.00 0.00 0.00 88 1011.4